QPF
0.05 0.05 0.03 0.03 0.04 0.05 0.06 0.06 0.07 0.09 0.08 0.07 0.08 0.07 0.07 0.05 0.05 0.05 0.06 0.07 0.08 0.08 0.09 0.08 0.07 0.07 0.06 0.06 0.06 0.05 0.06 0.07 0.07 0.08 0.09 0.08 0.06 0.08 0.06 0.06 0.10 0.12 0.10
0.04 0.03 0.03 0.03 0.03 0.05 0.05 0.05 0.08 0.09 0.08 0.07 0.07 0.08 0.07 0.05 0.03 0.04 0.06 0.07 0.09 0.09 0.10 0.09 0.07 0.07 0.06 0.06 0.08 0.07 0.07 0.07 0.08 0.08 0.11 0.11 0.09 0.07 0.06 0.06 0.08 0.07 0.07
0.03 0.03 0.03 0.03 0.04 0.04 0.04 0.06 0.07 0.08 0.07 0.05 0.06 0.06 0.08 0.06 0.04 0.04 0.04 0.05 0.09 0.09 0.09 0.08 0.06 0.06 0.07 0.07 0.09 0.08 0.07 0.08 0.08 0.11 0.18 0.19 0.10 0.07 0.08 0.06 0.07 0.07 0.09
0.02 0.03 0.02 0.03 0.03 0.03 0.04 0.05 0.07 0.07 0.06 0.05 0.04 0.05 0.08 0.08 0.04 0.04 0.05 0.07 0.08 0.09 0.10 0.09 0.08 0.06 0.06 0.07 0.06 0.06 0.05 0.07 0.09 0.14 0.22 0.20 0.12 0.08 0.07 0.07 0.07 0.09 0.11
0.02 0.03 0.02 0.03 0.03 0.04 0.04 0.05 0.06 0.07 0.05 0.05 0.04 0.06 0.05 0.06 0.06 0.07 0.06 0.07 0.09 0.11 0.10 0.09 0.09 0.07 0.06 0.07 0.06 0.05 0.05 0.08 0.10 0.13 0.16 0.19 0.17 0.13 0.09 0.07 0.08 0.09 0.15
0.02 0.03 0.02 0.03 0.04 0.05 0.05 0.06 0.06 0.07 0.06 0.06 0.05 0.04 0.05 0.08 0.09 0.10 0.07 0.07 0.08 0.10 0.10 0.08 0.08 0.07 0.07 0.07 0.06 0.05 0.05 0.10 0.16 0.17 0.19 0.20 0.20 0.17 0.11 0.09 0.11 0.09 0.11
0.05 0.05 0.04 0.04 0.04 0.05 0.06 0.08 0.09 0.06 0.06 0.05 0.03 0.03 0.05 0.08 0.08 0.09 0.09 0.09 0.09 0.09 0.08 0.09 0.09 0.08 0.09 0.07 0.05 0.04 0.04 0.09 0.15 0.17 0.22 0.22 0.20 0.19 0.13 0.09 0.12 0.09 0.09
0.08 0.09 0.08 0.06 0.05 0.06 0.07 0.07 0.07 0.05 0.05 0.05 0.03 0.03 0.06 0.11 0.16 0.17 0.12 0.11 0.11 0.12 0.10 0.09 0.08 0.07 0.11 0.10 0.05 0.04 0.05 0.06 0.10 0.09 0.14 0.18 0.19 0.17 0.14 0.12 0.15 0.12 0.10
0.11 0.13 0.10 0.07 0.06 0.05 0.05 0.05 0.05 0.05 0.06 0.04 0.02 0.03 0.08 0.16 0.22 0.21 0.18 0.16 0.14 0.11 0.09 0.08 0.07 0.07 0.11 0.14 0.09 0.07 0.07 0.06 0.06 0.05 0.06 0.09 0.13 0.14 0.14 0.16 0.21 0.20 0.16
0.06 0.07 0.06 0.05 0.06 0.05 0.04 0.03 0.04 0.05 0.06 0.04 0.03 0.04 0.06 0.10 0.15 0.18 0.16 0.13 0.12 0.10 0.09 0.08 0.06 0.06 0.08 0.11 0.08 0.06 0.05 0.04 0.03 0.03 0.04 0.04 0.06 0.07 0.08 0.10 0.15 0.22 0.19
0.07 0.04 0.05 0.08 0.10 0.06 0.05 0.04 0.04 0.06 0.06 0.05 0.05 0.05 0.05 0.06 0.08 0.09 0.09 0.09 0.08 0.08 0.07 0.05 0.06 0.06 0.06 0.05 0.03 0.03 0.03 0.02 0.01 0.02 0.03 0.04 0.04 0.05 0.05 0.06 0.10 0.17 0.19
0.05 0.05 0.04 0.04 0.06 0.06 0.04 0.05 0.07 0.06 0.06 0.06 0.05 0.05 0.05 0.05 0.04 0.04 0.05 0.04 0.05 0.05 0.05 0.04 0.04 0.03 0.03 0.02 0.02 0.02 0.02 0.01 0.01 0.01 0.01 0.03 0.03 0.04 0.03 0.04 0.07 0.11 0.11
0.02 0.02 0.03 0.04 0.03 0.04 0.05 0.06 0.07 0.06 0.06 0.06 0.05 0.05 0.05 0.04 0.04 0.05 0.04 0.03 0.04 0.04 0.04 0.03 0.01 0.01 0.02 0.02 0.01 0.01 0.01 0.01 0.00 0.01 0.01 0.02 0.02 0.02 0.03 0.04 0.04 0.09 0.11
0.00 0.00 0.01 0.01 0.03 0.05 0.05 0.06 0.08 0.07 0.07 0.07 0.07 0.06 0.05 0.05 0.05 0.04 0.04 0.04 0.04 0.04 0.03 0.02 0.02 0.01 0.01 0.01 0.00 0.01 0.01 0.01 0.00 0.02 0.02 0.01 0.01 0.02 0.03 0.03 0.03 0.05 0.10
0.02 0.02 0.01 0.01 0.02 0.03 0.05 0.07 0.08 0.08 0.08 0.08 0.07 0.05 0.03 0.03 0.04 0.03 0.02 0.03 0.03 0.03 0.03 0.03 0.02 0.01 0.01 0.01 0.01 0.02 0.01 0.00 0.01 0.02 0.02 0.01 0.01 0.02 0.02 0.02 0.02 0.03 0.05
0.02 0.02 0.01 0.01 0.02 0.01 0.02 0.05 0.11 0.11 0.09 0.09 0.06 0.05 0.03 0.02 0.02 0.02 0.02 0.02 0.03 0.03 0.03 0.02 0.01 0.01 0.01 0.01 0.02 0.01 0.01 0.01 0.02 0.02 0.02 0.01 0.01 0.01 0.01 0.01 0.02 0.02 0.03
0.02 0.03 0.01 0.01 0.02 0.02 0.01 0.03 0.08 0.10 0.07 0.07 0.06 0.06 0.05 0.03 0.02 0.03 0.02 0.02 0.02 0.03 0.02 0.02 0.00 0.01 0.01 0.01 0.01 0.01 0.01 0.02 0.03 0.02 0.03 0.04 0.02 0.01 0.02 0.02 0.02 0.01 0.02
0.03 0.03 0.01 0.00 0.01 0.01 0.01 0.02 0.04 0.04 0.04 0.04 0.04 0.04 0.04 0.04 0.04 0.02 0.02 0.02 0.02 0.02 0.01 0.02 0.02 0.02 0.02 0.02 0.02 0.02 0.01 0.03 0.03 0.02 0.03 0.04 0.04 0.03 0.02 0.02 0.02 0.01 0.01
0.01 0.01 0.02 0.01 0.02 0.01 0.01 0.01 0.01 0.02 0.03 0.03 0.03 0.03 0.03 0.03 0.02 0.02 0.03 0.02 0.02 0.01 0.01 0.01 0.02 0.01 0.01 0.02 0.02 0.03 0.01 0.02 0.02 0.02 0.02 0.02 0.04 0.03 0.03 0.03 0.02 0.01 0.02
0.02 0.01 0.02 0.01 0.01 0.01 0.00 0.00 0.01 0.01 0.02 0.01 0.02 0.03 0.03 0.03 0.03 0.03 0.03 0.02 0.02 0.02 0.02 0.02 0.02 0.01 0.02 0.02 0.01 0.02 0.01 0.01 0.01 0.02 0.02 0.01 0.02 0.02 0.03 0.04 0.05 0.02 0.01
0.02 0.01 0.02 0.01 0.00 0.00 0.00 0.01 0.01 0.01 0.01 0.01 0.01 0.02 0.02 0.03 0.03 0.04 0.03 0.02 0.02 0.01 0.02 0.03 0.03 0.03 0.02 0.02 0.02 0.02 0.02 0.01 0.01 0.02 0.02 0.01 0.01 0.02 0.03 0.04 0.05 0.03 0.01
0.01 0.01 0.02 0.01 0.01 0.00 0.00 0.00 0.00 0.01 0.01 0.01 0.01 0.01 0.01 0.01 0.02 0.02 0.03 0.03 0.02 0.02 0.02 0.02 0.02 0.03 0.03 0.02 0.03 0.03 0.02 0.02 0.01 0.02 0.01 0.01 0.01 0.01 0.03 0.03 0.04 0.04 0.03
0.01 0.01 0.01 0.00 0.01 0.01 0.01 0.01 0.01 0.01 0.01 0.01 0.01 0.01 0.01 0.01 0.01 0.01 0.02 0.02 0.02 0.02 0.02 0.03 0.02 0.02 0.02 0.02 0.03 0.03 0.03 0.03 0.02 0.02 0.01 0.01 0.01 0.01 0.03 0.03 0.03 0.03 0.03
0.01 0.01 0.01 0.01 0.01 0.01 0.01 0.01 0.01 0.01 0.02 0.01 0.01 0.01 0.01 0.00 0.00 0.00 0.01 0.01 0.02 0.01 0.01 0.02 0.02 0.01 0.02 0.02 0.03 0.02 0.02 0.02 0.03 0.02 0.02 0.02 0.02 0.01 0.02 0.02 0.02 0.02 0.03
0.01 0.01 0.01 0.01 0.01 0.01 0.01 0.02 0.01 0.01 0.01 0.01 0.01 0.00 0.00 0.01 0.00 0.01 0.00 0.01 0.01 0.01 0.01 0.02 0.01 0.01 0.02 0.02 0.03 0.02 0.01 0.01 0.02 0.03 0.02 0.02 0.02 0.01 0.01 0.02 0.02 0.03 0.04
0.01 0.01 0.00 0.00 0.00 0.01 0.01 0.02 0.01 0.02 0.01 0.01 0.01 0.01 0.00 0.01 0.01 0.01 0.01 0.01 0.01 0.01 0.01 0.01 0.01 0.01 0.01 0.02 0.04 0.03 0.02 0.01 0.01 0.02 0.02 0.02 0.03 0.02 0.02 0.02 0.03 0.04 0.05
MSLP
1009.85 1009.63 1009.56 1009.66 1009.90 1010.22 1010.54 1010.79 1010.94 1010.98 1010.93 1010.87 1010.82 1010.84 1010.93 1011.07 1011.24 1011.39 1011.47 1011.48 1011.43 1011.33 1011.23 1011.18 1011.19 1011.26 1011.38 1011.47 1011.49 1011.37 1011.07 1010.60 1009.99 1009.32 1008.69 1008.20 1007.95 1007.97 1008.27 1008.82 1009.54 1010.33 1011.08
1009.71 1009.60 1009.65 1009.85 1010.17 1010.54 1010.87 1011.11 1011.23 1011.24 1011.18 1011.11 1011.08 1011.12 1011.24 1011.42 1011.61 1011.77 1011.86 1011.86 1011.79 1011.67 1011.55 1011.47 1011.46 1011.51 1011.60 1011.67 1011.67 1011.55 1011.29 1010.88 1010.36 1009.80 1009.28 1008.89 1008.70 1008.75 1009.04 1009.53 1010.16 1010.85 1011.51
1009.57 1009.58 1009.73 1010.03 1010.41 1010.81 1011.16 1011.39 1011.49 1011.49 1011.42 1011.35 1011.34 1011.40 1011.55 1011.74 1011.95 1012.11 1012.19 1012.19 1012.10 1011.97 1011.84 1011.74 1011.69 1011.71 1011.76 1011.80 1011.79 1011.69 1011.48 1011.16 1010.77 1010.36 1009.99 1009.74 1009.64 1009.72 1009.99 1010.41 1010.92 1011.48 1012.02
1009.46 1009.57 1009.82 1010.19 1010.63 1011.06 1011.40 1011.63 1011.73 1011.72 1011.66 1011.60 1011.60 1011.68 1011.84 1012.04 1012.24 1012.40 1012.48 1012.47 1012.38 1012.24 1012.10 1011.98 1011.91 1011.88 1011.89 1011.91 1011.88 1011.80 1011.66 1011.44 1011.19 1010.95 1010.74 1010.62 1010.62 1010.74 1010.98 1011.31 1011.71 1012.13 1012.54
1009.39 1009.59 1009.92 1010.35 1010.83 1011.27 1011.63 1011.86 1011.95 1011.95 1011.90 1011.86 1011.88 1011.97 1012.12 1012.32 1012.51 1012.66 1012.73 1012.71 1012.63 1012.50 1012.35 1012.23 1012.14 1012.08 1012.05 1012.03 1011.99 1011.93 1011.83 1011.72 1011.60 1011.51 1011.45 1011.46 1011.54 1011.68 1011.89 1012.14 1012.42 1012.72 1013.01
1009.37 1009.64 1010.03 1010.51 1011.01 1011.47 1011.83 1012.07 1012.19 1012.20 1012.17 1012.15 1012.18 1012.27 1012.42 1012.60 1012.77 1012.90 1012.96 1012.94 1012.87 1012.76 1012.63 1012.51 1012.42 1012.34 1012.28 1012.22 1012.16 1012.10 1012.05 1012.00 1011.99 1012.01 1012.08 1012.18 1012.31 1012.47 1012.63 1012.81 1012.99 1013.18 1013.38
1009.40 1009.72 1010.15 1010.65 1011.17 1011.65 1012.03 1012.28 1012.42 1012.46 1012.46 1012.46 1012.50 1012.59 1012.72 1012.88 1013.02 1013.13 1013.18 1013.18 1013.12 1013.04 1012.95 1012.85 1012.76 1012.67 1012.59 1012.51 1012.43 1012.36 1012.32 1012.32 1012.36 1012.46 1012.60 1012.76 1012.92 1013.07 1013.19 1013.30 1013.40 1013.51 1013.64
1009.47 1009.81 1010.25 1010.77 1011.31 1011.79 1012.19 1012.47 1012.64 1012.72 1012.75 1012.77 1012.83 1012.91 1013.03 1013.16 1013.28 1013.37 1013.42 1013.42 1013.39 1013.35 1013.29 1013.22 1013.15 1013.07 1012.98 1012.88 1012.78 1012.70 1012.66 1012.67 1012.74 1012.87 1013.03 1013.21 1013.37 1013.50 1013.59 1013.64 1013.67 1013.73 1013.83
1009.55 1009.89 1010.34 1010.86 1011.39 1011.89 1012.30 1012.61 1012.81 1012.93 1013.00 1013.06 1013.13 1013.22 1013.33 1013.44 1013.55 1013.62 1013.66 1013.67 1013.67 1013.65 1013.63 1013.60 1013.56 1013.50 1013.42 1013.31 1013.20 1013.11 1013.05 1013.06 1013.13 1013.25 1013.42 1013.58 1013.73 1013.83 1013.88 1013.89 1013.90 1013.92 1013.99
1009.63 1009.95 1010.38 1010.88 1011.41 1011.91 1012.34 1012.67 1012.90 1013.07 1013.18 1013.27 1013.37 1013.47 1013.59 1013.69 1013.78 1013.85 1013.89 1013.91 1013.92 1013.93 1013.95 1013.95 1013.95 1013.91 1013.85 1013.75 1013.65 1013.55 1013.48 1013.47 1013.53 1013.64 1013.78 1013.93 1014.05 1014.13 1014.16 1014.15 1014.13 1014.14 1014.21
1009.67 1009.96 1010.36 1010.84 1011.35 1011.84 1012.27 1012.62 1012.88 1013.08 1013.23 1013.37 1013.50 1013.63 1013.76 1013.88 1013.97 1014.04 1014.09 1014.11 1014.14 1014.17 1014.21 1014.24 1014.27 1014.27 1014.23 1014.16 1014.07 1013.98 1013.92 1013.90 1013.94 1014.03 1014.15 1014.28 1014.38 1014.45 1014.48 1014.47 1014.45 1014.46 1014.52
1009.65 1009.91 1010.28 1010.73 1011.21 1011.68 1012.10 1012.46 1012.74 1012.96 1013.15 1013.33 1013.50 1013.67 1013.83 1013.98 1014.10 1014.19 1014.24 1014.28 1014.32 1014.36 1014.41 1014.47 1014.52 1014.55 1014.54 1014.51 1014.45 1014.38 1014.33 1014.32 1014.35 1014.43 1014.54 1014.66 1014.76 1014.84 1014.88 1014.89 1014.88 1014.89 1014.94
1009.56 1009.80 1010.13 1010.55 1011.00 1011.45 1011.85 1012.20 1012.49 1012.73 1012.95 1013.15 1013.37 1013.59 1013.80 1013.99 1014.15 1014.28 1014.36 1014.42 1014.47 1014.52 1014.58 1014.64 1014.71 1014.76 1014.79 1014.79 1014.77 1014.74 1014.72 1014.71 1014.75 1014.83 1014.94 1015.06 1015.18 1015.28 1015.35 1015.38 1015.40 1015.42 1015.46
1009.41 1009.63 1009.95 1010.35 1010.77 1011.19 1011.57 1011.90 1012.18 1012.42 1012.65 1012.89 1013.14 1013.41 1013.67 1013.93 1014.15 1014.32 1014.45 1014.54 1014.61 1014.67 1014.73 1014.80 1014.88 1014.95 1015.02 1015.05 1015.07 1015.07 1015.07 1015.10 1015.14 1015.23 1015.34 1015.48 1015.62 1015.75 1015.85 1015.92 1015.97 1016.00 1016.03
1009.20 1009.43 1009.75 1010.14 1010.55 1010.94 1011.30 1011.60 1011.87 1012.10 1012.34 1012.59 1012.87 1013.18 1013.50 1013.81 1014.10 1014.34 1014.52 1014.65 1014.75 1014.83 1014.91 1014.99 1015.08 1015.17 1015.25 1015.32 1015.37 1015.40 1015.43 1015.47 1015.53 1015.61 1015.74 1015.88 1016.04 1016.20 1016.34 1016.45 1016.52 1016.57 1016.59
1008.97 1009.23 1009.57 1009.96 1010.36 1010.75 1011.09 1011.38 1011.63 1011.85 1012.08 1012.33 1012.62 1012.95 1013.32 1013.69 1014.04 1014.34 1014.59 1014.78 1014.93 1015.04 1015.13 1015.23 1015.33 1015.43 1015.54 1015.63 1015.70 1015.75 1015.80 1015.84 1015.91 1015.99 1016.10 1016.25 1016.42 1016.59 1016.76 1016.90 1017.00 1017.06 1017.08
1008.74 1009.04 1009.41 1009.82 1010.24 1010.64 1010.99 1011.27 1011.51 1011.72 1011.93 1012.17 1012.46 1012.80 1013.19 1013.59 1013.99 1014.36 1014.67 1014.92 1015.12 1015.28 1015.41 1015.53 1015.65 1015.77 1015.89 1015.99 1016.08 1016.15 1016.20 1016.24 1016.29 1016.35 1016.44 1016.57 1016.73 1016.90 1017.07 1017.23 1017.35 1017.43 1017.47
1008.53 1008.88 1009.28 1009.73 1010.18 1010.61 1010.98 1011.29 1011.54 1011.75 1011.94 1012.17 1012.43 1012.76 1013.14 1013.55 1013.97 1014.38 1014.75 1015.06 1015.32 1015.53 1015.70 1015.86 1016.01 1016.15 1016.29 1016.41 1016.51 1016.59 1016.63 1016.66 1016.68 1016.71 1016.76 1016.85 1016.97 1017.13 1017.29 1017.45 1017.59 1017.68 1017.74
1008.33 1008.72 1009.16 1009.65 1010.15 1010.62 1011.04 1011.39 1011.67 1011.90 1012.10 1012.31 1012.54 1012.83 1013.18 1013.57 1013.99 1014.42 1014.82 1015.17 1015.49 1015.75 1015.98 1016.18 1016.37 1016.54 1016.70 1016.84 1016.95 1017.03 1017.07 1017.08 1017.07 1017.06 1017.06 1017.10 1017.17 1017.28 1017.42 1017.57 1017.70 1017.82 1017.89
1008.14 1008.55 1009.02 1009.54 1010.09 1010.63 1011.12 1011.54 1011.88 1012.15 1012.37 1012.56 1012.76 1013.01 1013.30 1013.65 1014.04 1014.45 1014.86 1015.25 1015.60 1015.91 1016.19 1016.44 1016.67 1016.88 1017.07 1017.23 1017.36 1017.45 1017.49 1017.49 1017.45 1017.40 1017.35 1017.33 1017.35 1017.40 1017.49 1017.61 1017.74 1017.86 1017.96
1007.91 1008.33 1008.82 1009.37 1009.97 1010.58 1011.15 1011.66 1012.09 1012.42 1012.67 1012.87 1013.05 1013.24 1013.47 1013.76 1014.09 1014.47 1014.86 1015.25 1015.63 1015.98 1016.30 1016.59 1016.86 1017.11 1017.33 1017.53 1017.68 1017.79 1017.84 1017.85 1017.80 1017.73 1017.64 1017.56 1017.52 1017.51 1017.54 1017.62 1017.72 1017.84 1017.96
1007.64 1008.05 1008.54 1009.11 1009.74 1010.42 1011.08 1011.69 1012.22 1012.64 1012.95 1013.17 1013.33 1013.48 1013.65 1013.87 1014.14 1014.46 1014.82 1015.19 1015.58 1015.95 1016.29 1016.62 1016.92 1017.20 1017.46 1017.69 1017.88 1018.02 1018.11 1018.13 1018.10 1018.02 1017.91 1017.79 1017.69 1017.62 1017.59 1017.61 1017.68 1017.78 1017.91
1007.28 1007.68 1008.16 1008.73 1009.39 1010.12 1010.87 1011.58 1012.21 1012.73 1013.11 1013.37 1013.55 1013.67 1013.79 1013.95 1014.15 1014.41 1014.73 1015.08 1015.45 1015.82 1016.17 1016.51 1016.84 1017.14 1017.43 1017.69 1017.92 1018.11 1018.24 1018.31 1018.32 1018.26 1018.15 1018.01 1017.87 1017.74 1017.65 1017.61 1017.62 1017.69 1017.81
1006.85 1007.24 1007.69 1008.26 1008.93 1009.70 1010.51 1011.31 1012.04 1012.65 1013.11 1013.43 1013.63 1013.75 1013.85 1013.96 1014.11 1014.32 1014.60 1014.92 1015.27 1015.63 1015.98 1016.32 1016.64 1016.96 1017.26 1017.55 1017.83 1018.07 1018.26 1018.39 1018.44 1018.43 1018.34 1018.20 1018.03 1017.87 1017.71 1017.61 1017.56 1017.57 1017.65
1006.37 1006.75 1007.18 1007.73 1008.39 1009.18 1010.03 1010.89 1011.70 1012.39 1012.93 1013.31 1013.55 1013.69 1013.79 1013.88 1014.01 1014.20 1014.45 1014.74 1015.07 1015.41 1015.75 1016.07 1016.39 1016.70 1017.01 1017.31 1017.62 1017.90 1018.15 1018.35 1018.47 1018.51 1018.47 1018.35 1018.17 1017.97 1017.77 1017.60 1017.48 1017.43 1017.46
1005.87 1006.25 1006.66 1007.19 1007.83 1008.61 1009.48 1010.37 1011.22 1011.97 1012.57 1013.01 1013.30 1013.48 1013.60 1013.71 1013.85 1014.04 1014.28 1014.57 1014.88 1015.21 1015.52 1015.83 1016.12 1016.41 1016.71 1017.02 1017.35 1017.67 1017.97 1018.23 1018.42 1018.53 1018.53 1018.44 1018.28 1018.05 1017.81 1017.58 1017.39 1017.27 1017.23
Thickness
5768 5769 5768 5769 5769 5770 5770 5770 5771 5771 5772 5773 5773 5773 5774 5774 5774 5773 5773 5772 5772 5772 5772 5772 5771 5771 5771 5771 5770 5770 5770 5770 5770 5770 5770 5770 5770 5770 5770 5769 5769 5769 5769
5769 5768 5766 5766 5767 5767 5768 5768 5768 5769 5769 5770 5770 5770 5771 5771 5771 5771 5770 5770 5769 5769 5769 5769 5769 5768 5768 5768 5768 5767 5768 5768 5768 5768 5768 5767 5768 5768 5767 5767 5767 5767 5767
5769 5766 5764 5764 5764 5764 5765 5765 5766 5766 5767 5767 5767 5768 5768 5768 5768 5768 5768 5767 5766 5766 5766 5766 5766 5765 5765 5764 5765 5765 5765 5765 5766 5766 5766 5765 5765 5765 5765 5766 5765 5765 5765
5768 5765 5762 5761 5761 5762 5762 5762 5763 5763 5764 5764 5764 5765 5766 5766 5766 5766 5766 5765 5764 5763 5763 5762 5762 5762 5762 5762 5762 5762 5763 5763 5763 5763 5763 5763 5763 5763 5763 5763 5763 5762 5762
5766 5762 5759 5759 5758 5759 5759 5759 5759 5760 5760 5761 5762 5762 5763 5763 5763 5762 5763 5762 5761 5760 5759 5759 5758 5758 5758 5758 5759 5759 5760 5760 5760 5760 5760 5760 5761 5760 5760 5759 5759 5759 5759
5763 5760 5757 5756 5756 5756 5756 5756 5756 5757 5757 5758 5758 5759 5759 5759 5759 5758 5759 5758 5758 5757 5756 5755 5755 5755 5755 5755 5755 5756 5756 5757 5757 5757 5757 5757 5759 5758 5756 5756 5756 5756 5756
5761 5758 5755 5754 5753 5753 5753 5753 5753 5754 5754 5754 5755 5755 5756 5755 5755 5755 5754 5754 5753 5753 5752 5751 5751 5751 5751 5751 5751 5752 5753 5753 5754 5753 5753 5753 5754 5754 5753 5753 5752 5752 5752
5759 5757 5754 5752 5752 5751 5751 5751 5751 5751 5751 5751 5751 5752 5752 5752 5751 5751 5750 5750 5749 5748 5748 5748 5748 5747 5748 5747 5748 5748 5749 5750 5750 5750 5749 5748 5748 5749 5749 5749 5748 5748 5748
5757 5755 5753 5751 5750 5749 5749 5748 5749 5748 5748 5749 5748 5749 5749 5748 5748 5747 5746 5746 5745 5745 5745 5744 5744 5744 5744 5744 5744 5745 5746 5746 5745 5746 5745 5744 5744 5744 5744 5744 5743 5743 5743
5755 5754 5752 5751 5748 5747 5747 5746 5746 5746 5746 5746 5746 5746 5746 5745 5745 5744 5743 5742 5742 5742 5741 5741 5741 5741 5742 5742 5742 5742 5742 5742 5741 5741 5740 5740 5740 5740 5740 5740 5739 5739 5739
5750 5751 5751 5750 5748 5746 5745 5744 5743 5743 5743 5743 5743 5743 5743 5743 5742 5741 5740 5739 5739 5738 5738 5738 5737 5738 5739 5739 5739 5740 5740 5739 5738 5737 5736 5736 5736 5736 5736 5735 5735 5735 5735
5744 5747 5748 5748 5747 5745 5743 5741 5741 5741 5740 5740 5741 5741 5740 5740 5739 5738 5737 5736 5735 5735 5734 5734 5734 5735 5736 5736 5737 5737 5736 5736 5735 5733 5731 5731 5732 5731 5731 5730 5730 5730 5731
5743 5744 5745 5745 5745 5743 5741 5740 5739 5739 5738 5738 5738 5738 5737 5736 5736 5734 5733 5732 5731 5731 5731 5731 5732 5732 5733 5733 5733 5733 5733 5732 5731 5729 5727 5727 5727 5726 5726 5726 5725 5726 5726
5741 5741 5742 5742 5741 5741 5739 5738 5737 5736 5736 5735 5735 5735 5734 5733 5732 5731 5730 5729 5728 5728 5729 5729 5729 5729 5730 5730 5730 5730 5729 5728 5726 5724 5723 5722 5722 5722 5721 5721 5721 5721 5722
5737 5738 5739 5739 5738 5738 5736 5735 5735 5734 5733 5731 5731 5732 5731 5730 5729 5728 5727 5726 5725 5725 5725 5725 5725 5725 5725 5725 5725 5724 5723 5723 5722 5720 5718 5718 5718 5717 5717 5717 5717 5717 5717
5735 5735 5736 5736 5736 5735 5733 5732 5731 5730 5730 5729 5728 5729 5728 5727 5726 5725 5723 5722 5721 5721 5721 5721 5720 5720 5719 5719 5719 5719 5718 5718 5717 5716 5714 5713 5713 5713 5712 5712 5712 5712 5712
5734 5734 5732 5733 5732 5731 5730 5730 5728 5727 5726 5725 5725 5725 5725 5724 5723 5721 5720 5718 5717 5717 5717 5717 5716 5715 5714 5714 5713 5713 5713 5713 5712 5711 5711 5709 5708 5708 5707 5707 5707 5707 5707
5732 5731 5730 5730 5728 5727 5727 5726 5725 5724 5722 5721 5721 5721 5720 5720 5719 5717 5716 5714 5714 5713 5712 5711 5710 5708 5707 5707 5707 5707 5707 5707 5707 5707 5706 5705 5704 5703 5702 5702 5702 5702 5702
5730 5728 5726 5726 5724 5723 5723 5722 5721 5720 5718 5717 5717 5716 5715 5715 5714 5713 5711 5710 5710 5708 5707 5707 5704 5703 5701 5700 5701 5701 5701 5701 5701 5701 5700 5699 5699 5698 5697 5697 5697 5697 5697
5727 5725 5723 5721 5720 5719 5718 5717 5716 5714 5713 5712 5712 5711 5711 5710 5709 5708 5707 5706 5705 5703 5701 5700 5698 5698 5696 5695 5696 5695 5695 5696 5696 5695 5695 5694 5693 5693 5692 5692 5692 5692 5692
5722 5721 5719 5716 5716 5714 5713 5711 5708 5706 5707 5706 5706 5706 5705 5705 5704 5703 5702 5701 5700 5698 5696 5695 5693 5691 5690 5690 5688 5686 5688 5690 5689 5689 5689 5688 5687 5687 5687 5687 5687 5688 5688
5718 5716 5715 5713 5711 5710 5708 5707 5705 5703 5702 5702 5701 5701 5700 5700 5699 5699 5697 5696 5695 5693 5691 5690 5688 5684 5683 5684 5679 5676 5673 5675 5679 5682 5682 5681 5681 5681 5681 5682 5682 5682 5682
5714 5712 5712 5710 5707 5706 5704 5703 5701 5698 5697 5695 5695 5694 5695 5695 5694 5693 5692 5691 5690 5688 5686 5684 5682 5679 5675 5676 5676 5670 5663 5661 5665 5670 5672 5673 5674 5674 5675 5676 5677 5676 5677
5712 5711 5709 5707 5704 5702 5700 5696 5693 5690 5687 5688 5689 5689 5690 5690 5689 5688 5687 5685 5684 5683 5681 5679 5678 5675 5672 5668 5668 5668 5665 5662 5656 5656 5660 5664 5666 5667 5668 5670 5670 5671 5671
5709 5706 5705 5703 5700 5697 5694 5691 5688 5686 5685 5685 5685 5684 5684 5684 5683 5682 5681 5679 5678 5677 5676 5674 5672 5670 5667 5664 5661 5659 5658 5657 5656 5650 5648 5651 5655 5659 5661 5663 5664 5665 5666
5704 5702 5699 5697 5694 5692 5690 5687 5683 5681 5680 5679 5678 5677 5677 5677 5677 5676 5675 5674 5672 5671 5670 5669 5667 5665 5662 5660 5657 5654 5651 5648 5646 5645 5642 5642 5644 5649 5654 5656 5657 5659 5660